sat.trackr.live / text

‹ back to catalog

STARLINK-5995

NORAD 56456 · 2023-064J

PAYLOAD ACTIVE UNKNOWN

§ Identity

Operator
Country
US
Launch date
2023-05-10
Launch site
AFWTR
Launch vehicle
Mass (kg)
RCS (m²)

Purposes: comms

External: N2YO · Heavens-Above · Gunter

§ Orbital elements

Epoch: 2026-09-20T10:04:27.630336Z

Period
96.11 min
Inclination
70.0008°
Eccentricity
0.0003137
Mean motion
14.98334996 rev/d
Perigee alt
569.9 km
Apogee alt
574.2 km
Semi-major
6,950.2 km
B*
1.8399e-5
RAAN
13.5180°
Arg perigee
272.9664°
Mean anomaly
87.1136°
Rev number
18,441

§ Raw data

STARLINK-59951 56456U 23064J   26263.41976424  .00000127  00000+0  18399-4 0  99902 56456  70.0008  13.5180 0003137 272.9664  87.1136 14.98334996184411

JSON: /api/v1/satellites/56456 · /tle

For live sub-satellite position, see the globe view (requires WebGL).

§ Visibility from observer

Set your observer location to see the next 7 days of passes ≥ 10°. The values pass through the URL so the page stays shareable.

No JS? Fill the form by hand. The geolocation button needs JavaScript.